Preview of NWS' New Version of Forecast
This preview is not operational and should not be used for support decisions.

Regional Weather Roundup (RWR)

Issued by National Weather Service (NWS)

                            
000
ASUS46 KSEW 180310
RWRWA 

WASHINGTON REGIONAL WEATHER ROUNDUP
NATIONAL WEATHER SERVICE SEATTLE WA
700 PM PST SUN FEB 17 2019

NOTE:"FAIR" INDICATES FEW OR NO CLOUDS BELOW 12,000 FEET WITH NO 
SIGNIFICANT WEATHER AND/OR OBSTRUCTIONS TO VISIBILITY.

WAZ507-509-555>559-180400-
SEATTLE, TACOMA, EVERETT, AND VICINITY
  
CITY           SKY/WX    TMP DP  RH WIND       PRES   REMARKS
EVERETT        PTCLDY    36  30  79 CALM      30.26R                  
BOEING FIELD   MOCLDY    39  32  76 CALM      30.28R                  
RENTON         CLOUDY    38  34  85 CALM      30.28R                  
SEATAC AIRPORT MOCLDY    38  32  79 S3        30.27R                  
JBLM-MCCHORD   CLOUDY    36  36 100 CALM      30.28R                  
PUYALLUP       CLOUDY    36  36 100 CALM      30.27R                  
BREMERTON      CLOUDY    31  30  96 CALM      30.27R                  
JBLM-FT LEWIS  NOT AVBL                                               
TACOMA NARROWS MOCLDY    38  34  85 CALM      30.28R                  
$$
 
WAZ001-503-506-510-514-515-180400-
NORTH INTERIOR
  
CITY           SKY/WX    TMP DP  RH WIND       PRES   REMARKS
BELLINGHAM     CLOUDY    39  30  70 NW6       30.27R                  
FRIDAY HARBOR  CLOUDY    39  31  72 NW3       30.29R                  
EASTSOUND      CLOUDY    37  34  87 CALM      30.28R                  
PORT ANGELES   MOCLDY    35  33  92 SW5       30.28R                  
EDIZ HOOK      CLOUDY    40  36  87 SW5       30.29R                  
PORT TOWNSEND  CLOUDY    37  34  87 N3        30.27R                  
NAS WHIDBEY    MOCLDY    44  30  57 NW13      30.31R                  
ARLINGTON      MOCLDY    35  31  85 CALM      30.27R                  
BURLINGTON     CLOUDY    39  32  75 CALM      30.27R                  
$$
 
WAZ020-022-039-040-504-511-512-180400-
SOUTHWEST INTERIOR
  
CITY           SKY/WX    TMP DP  RH WIND       PRES   REMARKS
SHELTON        CLOUDY    37  34  89 CALM      30.26R                  
OLYMPIA        PTCLDY    31  30  96 S3        30.28R                  
CHEHALIS       MOCLDY    36  36 100 CALM      30.28R                  
KELSO          PTCLDY    38  35  89 CALM      30.28R                  
VANCOUVER      CLOUDY    41  32  70 NW3       30.27R                  
SCAPPOOSE, OR  CLEAR     37  33  85 W3        30.27R                  
PORTLAND, OR   MOCLDY    40  32  73 NW5       30.28R                  
$$
 
WAZ021-516-517-180400-
WASHINGTON COAST
  
CITY           SKY/WX    TMP DP  RH WIND       PRES   REMARKS
FORKS          CLEAR     36  31  82 N5        30.28R                  
HOQUIAM        CLEAR     40  36  86 W3        30.29R                  
ASTORIA, OR    CLEAR     37  34  89 CALM      30.28R                  
$$
 
WAZ019-023-024-040-567>569-180400-
CASCADE MOUNTAINS AND COLUMBIA GORGE
  
CITY           SKY/WX    TMP DP  RH WIND       PRES   REMARKS
STAMPEDE PASS  FOG       26  23  88 VRB5      30.09R VSB 1/2          
TROUTDALE, OR  CLOUDY    41  33  73 W3        30.27R                  
HOOD RIVER, OR MOCLDY    36  30  80 CALM      30.22R                  
THE DALLES, OR MOCLDY    33  29  85 E7        30.23R                  
$$

WAZ026-027-041>044-520-521-180400-
EAST SLOPES
  
CITY           SKY/WX    TMP DP  RH WIND       PRES   REMARKS
OMAK           MOCLDY    30  17  58 NW9       30.24R                  
WENATCHEE      CLOUDY    31  24  75 N3        30.22R                  
ELLENSBURG     FLURRIES  32  27  81 CALM      30.18R                  
YAKIMA         LGT SNOW  32  30  92 W6        30.23R FOG              
SUNNYSIDE ARPT CLOUDY    35  29  79 NW10      30.23  WCI  28          
YAKIMA TC      LGT SNOW  31  29  93 CALM      30.19R                  
$$

WAZ028-034-035-180400-
COLUMBIA BASIN
  
CITY           SKY/WX    TMP DP  RH WIND       PRES   REMARKS
EPHRATA        CLOUDY    31  24  75 E6        30.22R                  
MOSES LAKE     CLOUDY    31  21  66 NE9       30.23R                  
PASCO          CLOUDY    33  31  92 N5        30.24R                  
RICHLAND ARPT  CLOUDY    33  29  88 N6        30.25R                  
HERMISTON, OR  CLOUDY    34  30  85 W3        30.22R                  
$$

WAZ036>038-180400-
NORTHEAST WASHINGTON
  
CITY           SKY/WX    TMP DP  RH WIND       PRES   REMARKS
SPOKANE GEIGER PTCLDY    21  12  68 NE9       30.15R                  
SPOKANE FELTS  PTCLDY    22  11  62 E8        30.19R                  
FAIRCHILD AFB  CLEAR     17  12  80 N8        30.14R                  
COEURDALENE,ID PTCLDY    18  11  74 N14       30.17R WCI   4          
DEER PARK      CLEAR     15   7  70 NE7       30.19R                  
$$

WAZ029>033-180400-
SOUTHEAST WASHINGTON
  
CITY           SKY/WX    TMP DP  RH WIND       PRES   REMARKS
PULLMAN        FLURRIES  24  22  91 NW9       30.10R                  
LEWISTON, ID   CLOUDY    32  25  75 S3        30.15R                  
WALLA WALLA    LGT SNOW  33  30  88 S3        30.18R FOG              
PENDLETON, OR  CLOUDY    31  29  92 NW3       30.17R FOG              
$$